Location: Hac?musa Deresi
(39.1694°N, 32.2508°E)
Time: 22:48:26
(UTC+00:00)

Cosmos 1025 Rocket - Pass Details

Date: 22 April 2026
Orbit: 586 x 609 km, 82.5° (Epoch: 9 May)

Event Time Altitude Azimuth Distance (km) Brightness Sun altitude
Rises 17:51:37 0° 359° (N) 2,831 6.9 -14.4°
Reaches altitude 10° 17:53:55 10° 6° (N) 1,929 5.9 -14.8°
Maximum altitude 17:57:59 44° 79° (E) 828 3.4 -15.5°
Enters shadow 17:59:44 28° 132° (SE) 1,115 3.8 -15.8°
